User: anonymous   Login
Location: Demmingen
(48.6757°N, 10.4375°E)
Time: 12:34:59
(UTC+00:00)
Language:

Cosmos 1953 - Orbit

View from above orbital plane
View from above orbital plane
View from above satellite
View from above satellite

Ground track
Ground track

The orbit data is extracted from the following two-line orbital elements,

1 19210U 88050A   24200.94621662  .00010979  00000-0  57432-3 0  9998
2 19210  82.5131  35.1688 0015644  63.4199 296.8634 15.15625964946672
Epoch (UTC): 18 July 2024 22:42:33
Eccentricity: 0.0015644
inclination: 82.5131°
perigee height: 508 km
apogee height: 530 km
right ascension of ascending node: 35.1688°
argument of perigee: 63.4199°
revolutions per day: 15.15625964
mean anomaly at epoch: 296.8634°
orbit number at epoch: 94667

The dashed part of the orbit path shows where the satellite is in the earth's shadow,  

DLR